www.pogodaiklimat.ru

Погода и климат >> Архив погоды >> Россия >> Мурманская область >> Апатиты


ПОГОДА в Апатитах

  • Прогноз погоды в Апатитах
  • Монитор погоды в Апатитах

АРХИВ ПОГОДЫ в Апатитах

Время (UTC), дата Ветер
(напр.,м/с)
 
Видим.   Явления Облачность Т
(С)
Тd
(С)
f
(%)
Тe
(С)
Тes
(С)
Комфортность P
(гПа)
Po
(гПа)
Тmin
(С)
Tmax
(С)
R
(мм)
R24
(мм)
S
(см)
12 12.08 Ю 6 50 км 9/3 600 м
[Sc Ac trans Cc]
+17.0 +7.0 52 +16 +17 1012.5 996.7
18 12.08 В 4-6
{10}
50 км 9/4 600 м
[Sc Ac trans]
+12.3 +7.6 73 +10 +10 1011.7 995.7 +17.3
00 13.08 В 3 20 км 9/9 600 м
[Sc Ac As]
+10.2 +6.7 79 +8 +8 1010.2 994.1
06 13.08 В 3 4000 м дождь {снег} 10/10 300 м
[Frnb Ns]
+10.3 +9.5 95 +8 +8 1008.9 992.8 +9.4 1
12 13.08 В 3 4000 м слаб. морось {дождь} 10/10 300 м
[St]
+11.9 +11.1 95 +10 +10 1008.2 992.2
18 13.08 В 2 2000 м слаб. дождь {морось} 10/10 300 м
[Frnb Ns]
+11.9 +11.6 98 +11 +11 1007.3 991.3 +12.5 0.9
00 14.08 В 2 20 км в посл. час дождь 10/8 600 м
[Sc Ac As]
+11.6 +11.3 98 +10 +10 1005.4 989.5
06 14.08 ЮВ 2 20 км 10/10 300 м
[St]
+12.7 +11.8 94 +12 +12 1004.6 988.7 +11.3 0.4
12 14.08 штиль 0 20 км {дождь} 9/9 600 м
[Sc]
+15.6 +11.9 79 +15 +16 1003.8 988.1
18 14.08 В 1 20 км {ливн. осадки} 10/10 600 м
[Cb cap]
+13.6 +12.5 93 +14 +14 1003.8 988.0 +17.6 0.0
00 15.08 В 2 2000 м дымка 10/10 300 м
[St]
+11.9 +11.6 98 +11 +11 1003.7 987.8
06 15.08 В 3 10 км слаб. ливневой дождь {морось} 10/8 300 м
[Cb cap Ac As]
+12.8 +12.2 96 +11 +11 1002.8 987.0 +11.7 2
12 15.08 В 3 20 км {ливн. осадки} 9/6 600 м
[Cb cap Ac trans]
+15.9 +11.3 74 +15 +17 1001.8 986.1
18 15.08 С 1 20 км в посл. час ливневой дождь 5/3 600 м
[Cb cap Ac trans]
+12.1 +11.4 95 +12 +12 1002.5 986.6 +17.0 1
00 16.08 СЗ 1 1000 м в посл. час туман 10/10 200 м
[St]
+10.5 +10.3 99 +10 +10 1003.9 987.9
06 16.08 ЮЗ 1 20 км {туман} 10/10 300 м
[St]
+10.9 +10.7 99 +10 +10 1006.6 990.6 +9.4
12 16.08 С 2 20 км 10/10 600 м
[Sc]
+12.1 +10.6 91 +11 +11 1009.7 993.7
18 16.08 В 1 20 км 9/4 600 м
[Sc Ac As]
+12.2 +11.2 94 +12 +12 1011.4 995.4 +14.8
00 17.08 В 2 50 км 9/4 600 м
[Sc Ac As]
+10.5 +9.9 96 +9 +9 1012.7 996.6
06 17.08 В 2 20 км 9/8 600 м
[Sc Ac cast]
+12.9 +11.2 89 +12 +13 1013.2 997.2 +10.4
12 17.08 Ю 5-8
{10}
10 км 10/10 600 м
[Sc]
+16.6 +9.9 65 +16 +16 1013.0 997.2
18 17.08 В 2 50 км 9/8 600 м
[Sc Ac trans Ci fib]
+15.0 +12.0 82 +15 +15 1013.4 997.5 +19.0
00 18.08 В 3 50 км 9/8 600 м
[Sc Ac trans]
+13.2 +11.3 88 +12 +12 1014.2 998.2
06 18.08 В 4 20 км 9/1 600 м
[Sc Ac As Cc]
+14.9 +12.0 83 +14 +15 1014.3 998.4 +12.6
12 18.08 Ю 6 20 км 5/3 600 м
[Cu Sc Ac trans Ci fib]
+20.6 +13.7 65 +23 +24 комфорт 1014.1 998.5
18 18.08 ЮВ 5 50 км 8/3 600 м
[Sc Ac trans Ci fib]
+17.8 +11.5 67 +17 +17 1014.7 999.0 +21.5
00 19.08 ЮВ 4 50 км 9/4 600 м
[Sc Ac trans Ci fib]
+12.5 +9.1 80 +11 +11 1015.4 999.3
06 19.08 В 5 50 км 9/3 600 м
[Sc Ac trans]
+14.8 +10.5 75 +13 +14 1013.8 997.9 +11.9

 

Местоположение метеостанции Апатиты (Мурманская область, Россия): широта 67.55 долгота 33.35 высота над уровнем моря 134 м.

В архиве по умолчанию представлена погода в Апатитах за последнюю неделю. Архивные данные за месяц целиком и за предыдущие месяцы, начиная с января 2011 года, Вы можете получить, выбрав интересующий диапазон дат из раскрывающегося списка и нажав кнопку "Ввод!".


*Определитесь, кто Вы:
робот инопланетянин человек

Внимание! Время в таблицах - всемирное. Для получения местного времени необходимо прибавить поправку, которая равна 3 ч.

Смотрите также архив погоды в соседних городах и на ближайших метеорологических станциях:

Погода в Кировске (Мурманская область, Россия) (16 км)
Погода в Зашейке (Мурманская область, Россия) (38 км)
Погода в Умбозере (Мурманская область, Россия) (41 км)
Погода в Мончегорске (Мурманская область, Россия) (46 км)
Погода в Порту Кандалакша (Мурманская область, Россия) (61 км)
Погода в Кандалакше (Мурманская область, Россия) (62 км)
Погода в Порту Витино (Мурманская область, Россия) (68 км)
Погода в Ловозере (Мурманская область, Россия) (87 км)
Погода в Пулозере (Мурманская область, Россия) (89 км)
Погода в Ковде (Мурманская область, Россия) (97 км)

Пояснения к столбцам:

Ветер - указаны скорость ветра в м/с - средняя за 10 мин, порывы в срок и между сроками (в фигурных скобках) и направление, откуда дует ветер: С - северный, СВ - северо-восточный, В - восточный, ЮВ - юго-восточный, Ю - южный, ЮЗ - юго-западный, З - западный, СЗ - северо-западный.
Видимость - горизонтальная дальность видимости в метрах или километрах. При видимости от 1 до 10 км при отсутствии осадков обычно наблюдается дымка, при ухудшении видимости до 1 км и менее - туман. В сухую погоду видимость может ухудшаться дымом, пылью или мглою.
Явления - указаны атмосферные явления, наблюдавшиеся в срок или в последний час перед сроком; фигурными скобками обозначены явления, наблюдавшиеся между сроками (за 1-3 часа до срока); квадратными скобками обозначены град или гололедные отложения с указанием их диаметра в мм.
Облачность - указаны через наклонную черту общая и нижняя облачность в баллах и высота нижней границы облаков в метрах; квадратными скобками обозначены формы облаков: Ci - перистые, Cs - перисто-слоистые, Cc - перисто-кучевые, Ac - высококучевые, As - высокослоистые, Sc - слоисто-кучевые, Ns - слоисто-дождевые, Cu - кучевые, Cb - кучево-дождевые. Подробнее классификацию облаков см. в Атласе облаков (PDF).
T - Температура воздуха - температура, измеренная на высоте 2 м над землей.
Td - Температура точки росы - температура, при понижении до которой содержащийся в воздухе водяной пар достигнет насыщения.
f - Относительная влажность воздуха - влажноcть воздуха, измеренная на высоте 2 м над землей.
Te - Эффективная температура - температура, которую ощущает одетый по сезону человек в тени. Характеристика душности погоды. При расчете учитывается влияние влажности воздуха и скорости ветра на теплоощущения человека.
Tes - Эффективная температура на солнце - температура, которую ощущает человек, с поправкой на солнечный нагрев. Характеристика знойности погоды. Зависит от высоты солнца над горизонтом, облачности и скорости ветра. Ночью, в пасмурную погоду, а также при ветре 12 м/с и более поправка равна нулю.
P - Атмосферное давление - приведенное к уровню моря атмосферное давление.
Po - Атмосферное давление - измеренное на уровне метеостанции атмосферное давление.
Tmin - Минимальная температура - минимум температуры воздуха на высоте 2 м над землей.
Tmax - Максимальная температура - максимум температуры воздуха на высоте 2 м над землей.
R - Количество осадков - Количество выпавших осадков за период времени, мм. При наведении курсора мыши на число - период времени, за который выпало указанное количество осадков.
R24 - Количество осадков - Количество выпавших осадков за 24 часа, мм.
S - Снежный покров - Высота снежного покрова, см. При наведении курсора мыши на число - состояние снежного покрова и степень покрытия местности в баллах.